Regional Weather Roundup
Issued by NWS

Home | Current Version | Previous Version | Graphics & Text | Print | Product List | Glossary On
Versions: 1 2 3 4 5 6 7 8 9 10 11 12 13 14 15 16 17 18 19 20 21 22 23 24 25 26 27 28 29 30 31 32 33 34 35 36 37 38 39 40 41 42 43 44 45 46 47 48 49 50
000
ASUS43 KOAX 261002
RWRNE

WEATHER ROUNDUP FOR NEBRASKA
NATIONAL WEATHER SERVICE OMAHA NE
500 AM CDT SUN APR 26 2015

NOTES: SATELLITE DATA IS BEING USED TO AUGMENT CLOUD COVER ABOVE
       12000 FEET.
       "FAIR" INDICATES FEW OR NO CLOUDS BELOW 12,000 FEET WITH NO
       SIGNIFICANT WEATHER AND/OR OBSTRUCTIONS TO VISIBILITY.

  * THESE STATIONS DO NOT REPORT WEATHER SUCH AS RAIN...SNOW OR FOG.

NEZ001>004-019>022-054>056-261100-
NEBRASKA PANHANDLE

CITY           SKY/WX    TMP DP  RH WIND       PRES   REMARKS
SCOTTSBLUFF    CLOUDY    49  49 100 E10       29.80R
ALLIANCE       CLOUDY    47  45  93 SE14      29.83S
CHADRON        FOG       47  46  97 NE9       29.86S VSB 3/4
KIMBALL        RAIN      45  44  97 SE17      29.79F
SIDNEY         LGT RAIN  46  45  96 SE6       29.85S FOG
$$

NEZ057>060-069>072-079>082-261100-
SOUTHWEST NEBRASKA

CITY           SKY/WX    TMP DP  RH WIND       PRES   REMARKS
IMPERIAL       CLOUDY    45  43  93 E12G23    29.85R FOG
MCCOOK         CLOUDY    46  44  93 NE13      29.87S FOG
$$

NEZ005>010-023>029-035>040-094-261100-
NORTH CENTRAL NEBRASKA

CITY           SKY/WX    TMP DP  RH WIND       PRES   REMARKS
VALENTINE      MOCLDY    46  41  82 S15       29.91F
AINSWORTH      CLOUDY    45  42  89 SE9       29.92S
BROKEN BOW     CLOUDY    46  42  86 E13G21    29.90R
ORD            CLOUDY    42  39  89 E8        29.92S
$$

NEZ041-046>049-061>064-073>077-083>087-261100-
SOUTH CENTRAL NEBRASKA

CITY           SKY/WX    TMP DP  RH WIND       PRES   REMARKS
GRAND ISLAND   CLOUDY    46  42  86 E12       29.92S
AURORA         CLOUDY    46  45  97 E13       29.92R
HASTINGS       CLOUDY    46  42  86 E12       29.90R
KEARNEY *      CLOUDY    46  41  81 E16       29.90S
YORK           CLOUDY    46  45  93 E13       29.92S
$$

NEZ011>018-030>034-042>045-261100-
NORTHEAST NEBRASKA

CITY           SKY/WX    TMP DP  RH WIND       PRES   REMARKS
NORFOLK        CLOUDY    44  40  85 E5        29.96R
BLAIR          CLEAR     42  38  83 NE7       29.94R
COLUMBUS *     CLOUDY    46  37  71 E8        29.96S
TEKAMAH        CLEAR     40  37  89 N7        29.96R FOG
$$

NEZ050>053-065>068-078-088>093-261100-
SOUTHEAST NEBRASKA

CITY           SKY/WX    TMP DP  RH WIND       PRES   REMARKS
LINCOLN        CLOUDY    47  41  80 NE8       29.95R
OMAHA EPPLEY   CLEAR     42  39  89 NW5       29.95R
FALLS CITY     CLOUDY    47  41  80 NE13      29.90R
NEBRASKA CITY  CLOUDY    45  41  85 NE10      29.92R
PLATTSMOUTH    CLEAR     42  38  86 NE7       29.94R
$$

NEZ044-045-051>053-067-261100-
OMAHA AREA

CITY           SKY/WX    TMP DP  RH WIND       PRES   REMARKS
OMAHA EPPLEY   CLEAR     42  39  89 NW5       29.95R
BLAIR          CLEAR     42  38  83 NE7       29.94R
OFFUTT AFB     CLEAR     42  38  88 NE6       29.94R
PLATTSMOUTH    CLEAR     42  38  86 NE7       29.94R
WAHOO          FAIR      45  40  83 NE7       29.95R
$$


USA.gov is the U.S. government's official web portal to all federal, state and local government web resources and services.